^^
Datos históricos de la estación: Murcia-Puente Tocinos
Diario Informe para Abril 24, 2019 Unidades:  Métrico    Inglés   Ambas
Diario Semanal Mensual Anual Configurable
  Máximo: Mínimo: Media:
Temperatura: 20.4 °C 9.3 °C 15.4 °C
Punto de rocio: 11.3 °C 2.8 °C 6.6 °C
Humedad: 76% 36% 57%
Velocidad viento: 22.5km/h 0.0km/h 9.2km/h
Racha viento: 38.6km/h - -
Viento- - South
Presión: 1010.5 hPa 1003.9 hPa -
Precipitación: 0.0 mm    
Historical Graphs
 
 
Tabla de datos para Abril 24, 2019
Hora Temperatura Punto de rocio Presión Viento Velocidad viento Racha viento Humedad Intensidad lluvia(por hora) Nubes
00:00 15.1 °C 5.1 °C 1003.9 hPa SW 9.7 km/h 19.3 km/h 51% 0.0 mm RA
00:05 15.0 °C 4.7 °C 1004.1 hPa WNW 9.5 km/h 11.1 km/h 50% 0.0 mm RA
00:10 14.9 °C 5.1 °C 1004.1 hPa NW 10.3 km/h 13.0 km/h 52% 0.0 mm CLR
00:15 14.8 °C 5.3 °C 1004.1 hPa NW 10.3 km/h 7.4 km/h 53% 0.0 mm CLR
00:20 14.6 °C 4.6 °C 1004.4 hPa NW 6.4 km/h 11.1 km/h 51% 0.0 mm CLR
00:25 14.4 °C 4.7 °C 1004.4 hPa NNW 6.4 km/h 13.0 km/h 52% 0.0 mm CLR
00:30 14.2 °C 4.2 °C 1004.4 hPa WNW 8.4 km/h 14.8 km/h 51% 0.0 mm CLR
00:35 14.2 °C 4.2 °C 1004.7 hPa West 8.4 km/h 11.1 km/h 51% 0.0 mm CLR
00:40 14.1 °C 4.4 °C 1004.7 hPa West 6.9 km/h 5.6 km/h 52% 0.0 mm CLR
00:45 14.0 °C 4.3 °C 1004.7 hPa West 6.9 km/h 7.4 km/h 52% 0.0 mm CLR
00:50 13.9 °C 4.4 °C 1004.8 hPa West 2.9 km/h 7.4 km/h 53% 0.0 mm CLR
00:55 13.8 °C 4.4 °C 1004.8 hPa SW 2.9 km/h 9.3 km/h 53% 0.0 mm CLR
01:00 13.7 °C 4.6 °C 1004.8 hPa WSW 4.8 km/h 11.3 km/h 54% 0.0 mm CLR
01:05 13.6 °C 4.4 °C 1004.9 hPa West 4.8 km/h 12.9 km/h 54% 0.0 mm CLR
01:10 13.4 °C 4.6 °C 1004.9 hPa West 4.8 km/h 11.3 km/h 55% 0.0 mm CLR
01:15 13.3 °C 4.7 °C 1004.9 hPa NW 5.8 km/h 7.4 km/h 56% 0.0 mm CLR
01:20 13.1 °C 4.8 °C 1005.1 hPa WNW 5.0 km/h 13.0 km/h 57% 0.0 mm CLR
01:25 12.9 °C 4.6 °C 1005.1 hPa NW 4.8 km/h 12.9 km/h 57% 0.0 mm CLR
01:30 12.8 °C 4.7 °C 1005.1 hPa NW 6.9 km/h 7.4 km/h 58% 0.0 mm CLR
01:35 12.8 °C 4.7 °C 1005.1 hPa NW 8.0 km/h 9.7 km/h 58% 0.0 mm CLR
01:40 12.7 °C 4.9 °C 1005.1 hPa NW 4.7 km/h 7.4 km/h 59% 0.0 mm CLR
01:45 12.6 °C 4.8 °C 1005.1 hPa NW 4.7 km/h 5.6 km/h 59% 0.0 mm CLR
01:50 12.6 °C 5.0 °C 1005.2 hPa NNW 1.6 km/h 8.0 km/h 60% 0.0 mm CLR
01:55 12.4 °C 5.1 °C 1005.2 hPa NNW 2.3 km/h 5.6 km/h 61% 0.0 mm CLR
02:00 12.4 °C 5.1 °C 1005.2 hPa NNE 3.2 km/h 8.0 km/h 61% 0.0 mm CLR
02:05 12.3 °C 5.2 °C 1005.3 hPa NNE 4.7 km/h 3.7 km/h 62% 0.0 mm CLR
02:10 12.2 °C 5.1 °C 1005.3 hPa NNE 3.2 km/h 4.8 km/h 62% 0.0 mm CLR
02:15 12.1 °C 5.1 °C 1005.3 hPa SE 2.9 km/h 11.1 km/h 62% 0.0 mm CLR
02:20 12.1 °C 5.1 °C 1005.2 hPa ESE 4.8 km/h 11.3 km/h 62% 0.0 mm CLR
02:25 12.2 °C 5.1 °C 1005.2 hPa ESE 5.0 km/h 9.3 km/h 62% 0.0 mm CLR
02:30 12.1 °C 5.1 °C 1005.2 hPa SSE 6.9 km/h 11.1 km/h 62% 0.0 mm CLR
02:35 12.1 °C 5.1 °C 1005.2 hPa SSE 8.0 km/h 11.3 km/h 62% 0.0 mm CLR
02:40 12.1 °C 5.1 °C 1005.2 hPa SSW 8.0 km/h 11.3 km/h 62% 0.0 mm CLR
02:45 12.1 °C 5.1 °C 1005.2 hPa SW 8.0 km/h 9.7 km/h 62% 0.0 mm CLR
02:50 12.2 °C 4.9 °C 1005.3 hPa WSW 4.8 km/h 9.7 km/h 61% 0.0 mm CLR
02:55 12.2 °C 4.9 °C 1005.3 hPa WSW 4.8 km/h 9.7 km/h 61% 0.0 mm CLR
03:00 12.2 °C 4.9 °C 1005.3 hPa WSW 3.2 km/h 8.0 km/h 61% 0.0 mm CLR
03:05 12.2 °C 5.1 °C 1005.3 hPa WSW 3.2 km/h 8.0 km/h 62% 0.0 mm CLR
03:10 12.0 °C 5.4 °C 1005.3 hPa WSW 3.2 km/h 8.0 km/h 64% 0.0 mm CLR
03:15 11.4 °C 5.3 °C 1005.3 hPa NE 3.2 km/h 11.1 km/h 66% 0.0 mm CLR
03:20 11.2 °C 5.5 °C 1005.5 hPa ENE 4.7 km/h 5.6 km/h 68% 0.0 mm CLR
03:25 10.9 °C 5.4 °C 1005.5 hPa ENE 4.7 km/h 2.3 km/h 69% 0.0 mm CLR
03:30 10.9 °C 5.4 °C 1005.5 hPa ENE 3.2 km/h 3.2 km/h 69% 0.0 mm CLR
03:35 10.9 °C 5.4 °C 1005.8 hPa ENE 3.2 km/h   69% 0.0 mm CLR
03:40 10.9 °C 5.4 °C 1005.8 hPa Calm   6.4 km/h 69% 0.0 mm CLR
03:45 10.9 °C 5.4 °C 1005.8 hPa Calm   3.7 km/h 69% 0.0 mm CLR
03:50 11.0 °C 5.3 °C 1005.9 hPa WNW 2.3 km/h 7.4 km/h 68% 0.0 mm CLR
03:55 11.2 °C 5.1 °C 1005.9 hPa WNW 2.3 km/h 5.6 km/h 66% 0.0 mm CLR
04:00 11.2 °C 5.1 °C 1005.9 hPa West 3.2 km/h 8.0 km/h 66% 0.0 mm CLR
04:05 11.2 °C 5.1 °C 1006.1 hPa West 3.2 km/h 9.7 km/h 66% 0.0 mm CLR
04:10 11.2 °C 5.1 °C 1006.1 hPa WNW 3.9 km/h 3.7 km/h 66% 0.0 mm CLR
04:15 11.1 °C 5.0 °C 1006.1 hPa WNW 3.9 km/h 5.6 km/h 66% 0.0 mm CLR
04:20 11.1 °C 5.0 °C 1006.1 hPa SW 3.2 km/h 7.4 km/h 66% 0.0 mm CLR
04:25 11.1 °C 5.0 °C 1006.1 hPa SW 3.2 km/h 7.4 km/h 66% 0.0 mm CLR
04:30 11.1 °C 5.0 °C 1006.1 hPa SW 4.8 km/h 8.0 km/h 66% 0.0 mm CLR
04:35 11.2 °C 5.5 °C 1006.4 hPa ESE 5.0 km/h 5.6 km/h 68% 0.0 mm CLR
04:40 11.1 °C 5.6 °C 1006.4 hPa SSE 3.2 km/h 4.8 km/h 69% 0.0 mm CLR
04:45 10.7 °C 5.4 °C 1006.4 hPa ESE 3.9 km/h 3.9 km/h 70% 0.0 mm CLR
04:50 10.5 °C 5.4 °C 1006.6 hPa ESE 3.2 km/h 9.7 km/h 71% 0.0 mm CLR
04:55 10.3 °C 5.3 °C 1006.6 hPa SE 3.9 km/h 4.7 km/h 71% 0.0 mm CLR
05:00 10.3 °C 5.3 °C 1006.6 hPa SE 3.2 km/h 8.0 km/h 71% 0.0 mm CLR
05:05 10.3 °C 5.1 °C 1006.8 hPa SSE 4.7 km/h 5.6 km/h 70% 0.0 mm CLR
05:10 10.4 °C 5.2 °C 1006.8 hPa SSE 3.2 km/h 3.7 km/h 70% 0.0 mm CLR
05:15 10.4 °C 4.7 °C 1006.8 hPa WSW 3.2 km/h 8.4 km/h 68% 0.0 mm CLR
05:20 10.7 °C 5.0 °C 1006.9 hPa SSW 3.2 km/h 9.7 km/h 68% 0.0 mm CLR
05:25 10.7 °C 5.1 °C 1006.9 hPa South 3.9 km/h 7.4 km/h 68% 0.0 mm CLR
05:30 10.7 °C 5.1 °C 1006.9 hPa SSW 4.8 km/h 9.7 km/h 68% 0.0 mm CLR
05:35 10.7 °C 4.8 °C 1007.2 hPa West 5.8 km/h 9.3 km/h 67% 0.0 mm CLR
05:40 10.7 °C 4.8 °C 1007.2 hPa WSW 4.8 km/h 11.3 km/h 67% 0.0 mm CLR
05:45 10.7 °C 4.8 °C 1007.2 hPa West 5.8 km/h 7.4 km/h 67% 0.0 mm CLR
05:50 10.7 °C 4.8 °C 1007.3 hPa WSW 4.7 km/h 7.4 km/h 67% 0.0 mm CLR
05:55 10.7 °C 4.8 °C 1007.3 hPa SW 4.7 km/h 5.6 km/h 67% 0.0 mm CLR
06:00 10.7 °C 4.8 °C 1007.3 hPa SW 3.2 km/h 8.0 km/h 67% 0.0 mm CLR
06:05 10.6 °C 5.2 °C 1007.2 hPa South 3.2 km/h 8.0 km/h 69% 0.0 mm CLR
06:10 10.4 °C 5.2 °C 1007.2 hPa SSE 3.2 km/h 8.0 km/h 70% 0.0 mm CLR
06:15 10.3 °C 5.3 °C 1007.2 hPa SW 3.9 km/h 8.7 km/h 71% 0.0 mm CLR
06:20 10.3 °C 5.3 °C 1007.4 hPa SW 3.2 km/h 8.0 km/h 71% 0.0 mm CLR
06:25 10.2 °C 5.4 °C 1007.4 hPa SSE 4.7 km/h 9.3 km/h 72% 0.0 mm CLR
06:30 9.9 °C 5.3 °C 1007.4 hPa SSE 8.0 km/h 11.3 km/h 73% 0.0 mm CLR
06:35 9.8 °C 5.4 °C 1007.3 hPa SSE 6.4 km/h 9.3 km/h 74% 0.0 mm CLR
06:40 9.7 °C 5.5 °C 1007.3 hPa ESE 6.4 km/h 7.4 km/h 75% 0.0 mm CLR
06:45 9.5 °C 5.3 °C 1007.3 hPa ESE 6.4 km/h 5.0 km/h 75% 0.0 mm CLR
06:50 9.4 °C 5.4 °C 1007.5 hPa SSE 3.9 km/h 7.4 km/h 76% 0.0 mm CLR
06:55 9.6 °C 5.2 °C 1007.5 hPa SSE 3.9 km/h 9.3 km/h 74% 0.0 mm CLR
07:00 9.7 °C 5.3 °C 1007.5 hPa SSE 4.8 km/h 9.7 km/h 74% 0.0 mm CLR
07:05 9.8 °C 5.2 °C 1007.6 hPa SSE 4.8 km/h 6.4 km/h 73% 0.0 mm CLR
07:10 9.9 °C 5.3 °C 1007.6 hPa South 2.9 km/h 7.4 km/h 73% 0.0 mm CLR
07:15 10.0 °C 5.4 °C 1007.6 hPa South 3.2 km/h 6.4 km/h 73% 0.0 mm CLR
07:20 9.9 °C 5.5 °C 1007.8 hPa West 3.2 km/h 5.6 km/h 74% 0.0 mm CLR
07:25 9.8 °C 5.4 °C 1007.8 hPa West 3.2 km/h 3.7 km/h 74% 0.0 mm CLR
07:30 9.7 °C 5.3 °C 1007.8 hPa ESE 2.9 km/h 9.3 km/h 74% 0.0 mm CLR
07:35 9.3 °C 5.1 °C 1008.2 hPa SE 2.9 km/h 11.1 km/h 75% 0.0 mm CLR
07:40 9.4 °C 4.8 °C 1008.2 hPa South 6.9 km/h 9.3 km/h 73% 0.0 mm CLR
07:45 9.8 °C 4.8 °C 1008.2 hPa SSE 6.9 km/h 3.7 km/h 71% 0.0 mm CLR
07:50 10.2 °C 5.2 °C 1008.5 hPa SSE 3.2 km/h 3.7 km/h 71% 0.0 mm CLR
07:55 10.6 °C 5.3 °C 1008.5 hPa ENE 3.2 km/h 5.6 km/h 70% 0.0 mm CLR
08:00 10.7 °C 5.5 °C 1008.5 hPa ENE 3.2 km/h 4.8 km/h 70% 0.0 mm CLR
08:05 10.9 °C 5.4 °C 1008.6 hPa ENE 3.2 km/h 9.7 km/h 69% 0.0 mm CLR
08:10 10.7 °C 5.2 °C 1008.6 hPa SE 3.2 km/h 5.6 km/h 69% 0.0 mm CLR
08:15 10.4 °C 5.4 °C 1008.6 hPa SE 3.2 km/h 9.3 km/h 71% 0.0 mm CLR
08:20 10.3 °C 5.3 °C 1008.9 hPa SE 4.7 km/h 3.7 km/h 71% 0.0 mm CLR
08:25 10.6 °C 5.6 °C 1008.9 hPa SE 4.7 km/h   71% 0.0 mm CLR
08:30 10.9 °C 5.7 °C 1008.9 hPa Calm   5.6 km/h 70% 0.0 mm CLR
08:35 11.1 °C 5.8 °C 1008.9 hPa Calm   14.5 km/h 70% 0.0 mm CLR
08:40 11.2 °C 5.7 °C 1008.9 hPa SE 3.2 km/h   69% 0.0 mm CLR
08:45 11.2 °C 5.5 °C 1008.9 hPa SE 3.2 km/h   68% 0.0 mm CLR
08:50 11.3 °C 5.4 °C 1009.0 hPa Calm   3.2 km/h 67% 0.0 mm CLR
08:55 11.5 °C 5.6 °C 1009.0 hPa Calm   7.4 km/h 67% 0.0 mm CLR
09:00 11.7 °C 5.6 °C 1009.0 hPa West 3.2 km/h 9.7 km/h 66% 0.0 mm CLR
09:05 11.8 °C 5.4 °C 1009.2 hPa West 3.2 km/h 9.7 km/h 65% 0.0 mm CLR
09:10 12.2 °C 5.6 °C 1009.2 hPa SW 3.2 km/h   64% 0.0 mm CLR
09:15 12.5 °C 5.4 °C 1009.2 hPa WSW 3.2 km/h 5.6 km/h 62% 0.0 mm CLR
09:20 12.7 °C 5.4 °C 1009.3 hPa WNW 2.9 km/h 9.5 km/h 61% 0.0 mm CLR
09:25 12.6 °C 5.5 °C 1009.3 hPa NW 2.9 km/h 7.6 km/h 62% 0.0 mm CLR
09:30 12.6 °C 5.5 °C 1009.3 hPa West 8.0 km/h 12.9 km/h 62% 0.0 mm CLR
09:35 12.8 °C 5.4 °C 1009.7 hPa WSW 8.0 km/h 8.0 km/h 61% 0.0 mm CLR
09:40 13.1 °C 5.5 °C 1009.7 hPa South 3.2 km/h 8.0 km/h 60% 0.0 mm CLR
09:45 13.3 °C 5.2 °C 1009.7 hPa SSE 3.9 km/h 11.1 km/h 58% 0.0 mm CLR
09:50 13.6 °C 5.7 °C 1009.9 hPa SE 5.8 km/h 13.0 km/h 59% 0.0 mm CLR
09:55 13.6 °C 5.5 °C 1009.9 hPa WSW 5.8 km/h 3.9 km/h 58% 0.0 mm CLR
10:00 13.8 °C 5.7 °C 1009.9 hPa SW 4.8 km/h 11.3 km/h 58% 0.0 mm CLR
10:05 14.1 °C 5.4 °C 1009.9 hPa SW 4.8 km/h 12.9 km/h 56% 0.0 mm CLR
10:10 14.3 °C 5.4 °C 1009.9 hPa SSW 8.0 km/h 14.5 km/h 55% 0.0 mm CLR
10:15 14.6 °C 4.8 °C 1009.9 hPa West 8.4 km/h 9.3 km/h 52% 0.0 mm CLR
10:20 14.8 °C 5.1 °C 1009.9 hPa SSW 5.8 km/h 9.3 km/h 52% 0.0 mm CLR
10:25 15.1 °C 4.7 °C 1009.9 hPa SW 5.8 km/h 14.8 km/h 50% 0.0 mm CLR
10:30 15.2 °C 4.8 °C 1009.9 hPa West 6.9 km/h 13.0 km/h 50% 0.0 mm CLR
10:35 15.3 °C 4.6 °C 1009.9 hPa WSW 8.0 km/h 14.5 km/h 49% 0.0 mm CLR
10:40 15.4 °C 4.4 °C 1009.9 hPa SW 7.6 km/h 11.1 km/h 48% 0.0 mm CLR
10:45 15.6 °C 4.9 °C 1009.9 hPa SSW 7.6 km/h 7.4 km/h 49% 0.0 mm CLR
10:50 15.8 °C 4.8 °C 1009.8 hPa WNW 5.8 km/h 7.4 km/h 48% 0.0 mm CLR
10:55 15.9 °C 4.6 °C 1009.8 hPa SW 5.8 km/h 14.8 km/h 47% 0.0 mm CLR
11:00 16.2 °C 4.8 °C 1009.8 hPa WSW 8.0 km/h 14.5 km/h 47% 0.0 mm CLR
11:05 16.4 °C 4.1 °C 1010.0 hPa SSW 6.9 km/h 7.4 km/h 44% 0.0 mm CLR
11:10 16.6 °C 4.3 °C 1010.0 hPa West 5.0 km/h 5.6 km/h 44% 0.0 mm CLR
11:15 16.7 °C 4.7 °C 1010.0 hPa WSW 5.0 km/h 9.3 km/h 45% 0.0 mm CLR
11:20 16.8 °C 4.4 °C 1010.0 hPa SW 5.0 km/h 11.1 km/h 44% 0.0 mm CLR
11:25 17.1 °C 3.7 °C 1010.0 hPa WNW 5.0 km/h 7.4 km/h 41% 0.0 mm CLR
11:30 17.4 °C 4.0 °C 1010.0 hPa South 6.4 km/h 16.1 km/h 41% 0.0 mm CLR
11:35 17.6 °C 3.1 °C 1009.9 hPa SSW 6.4 km/h 22.2 km/h 38% 0.0 mm CLR
11:40 17.8 °C 3.3 °C 1009.9 hPa SSW 10.0 km/h 16.7 km/h 38% 0.0 mm CLR
11:45 17.8 °C 3.3 °C 1009.9 hPa WSW 10.0 km/h 11.1 km/h 38% 0.0 mm CLR
11:50 17.8 °C 3.7 °C 1010.1 hPa SSW 9.7 km/h 14.5 km/h 39% 0.0 mm CLR
11:55 18.1 °C 3.2 °C 1010.1 hPa SSW 9.7 km/h 25.7 km/h 37% 0.0 mm CLR
12:00 18.1 °C 2.8 °C 1010.1 hPa South 11.3 km/h 24.1 km/h 36% 0.0 mm CLR
12:05 18.0 °C 3.1 °C 1010.0 hPa SE 11.1 km/h 14.8 km/h 37% 0.0 mm CLR
12:10 18.2 °C 3.3 °C 1010.0 hPa SE 11.1 km/h 16.7 km/h 37% 0.0 mm CLR
12:15 18.1 °C 2.8 °C 1010.0 hPa South 11.1 km/h 14.8 km/h 36% 0.0 mm CLR
12:20 18.1 °C 4.3 °C 1010.0 hPa SSW 11.9 km/h 24.1 km/h 40% 0.0 mm CLR
12:25 18.2 °C 4.0 °C 1010.0 hPa SSE 11.9 km/h 20.4 km/h 39% 0.0 mm CLR
12:30 18.4 °C 4.2 °C 1010.0 hPa SE 16.1 km/h 24.1 km/h 39% 0.0 mm CLR
12:35 18.3 °C 4.1 °C 1010.0 hPa SE 16.1 km/h 24.1 km/h 39% 0.0 mm CLR
12:40 18.1 °C 3.9 °C 1010.0 hPa SSW 16.1 km/h 24.1 km/h 39% 0.0 mm CLR
12:45 18.2 °C 4.4 °C 1010.0 hPa SSE 16.1 km/h 18.5 km/h 40% 0.0 mm CLR
12:50 18.2 °C 4.0 °C 1010.0 hPa ESE 16.1 km/h 20.4 km/h 39% 0.0 mm CLR
12:55 18.6 °C 4.4 °C 1010.0 hPa SSE 16.1 km/h 14.8 km/h 39% 0.0 mm CLR
13:00 18.7 °C 3.7 °C 1010.0 hPa SSE 12.9 km/h 22.5 km/h 37% 0.0 mm CLR
13:05 18.7 °C 3.3 °C 1009.9 hPa SSW 13.0 km/h 16.7 km/h 36% 0.0 mm CLR
13:09 18.7 °C 3.3 °C 1009.9 hPa SE 11.1 km/h 14.8 km/h 36% 0.0 mm CLR
13:15 18.9 °C 3.5 °C 1009.9 hPa ESE 11.1 km/h 20.4 km/h 36% 0.0 mm CLR
13:20 19.1 °C 4.1 °C 1009.6 hPa ESE 11.9 km/h 11.1 km/h 37% 0.0 mm CLR
13:25 19.2 °C 4.2 °C 1009.6 hPa SSE 11.9 km/h 24.1 km/h 37% 0.0 mm CLR
13:30 19.1 °C 4.1 °C 1009.6 hPa SSE 14.0 km/h 18.5 km/h 37% 0.0 mm CLR
13:35 18.9 °C 4.7 °C 1009.4 hPa SSE 14.5 km/h 29.0 km/h 39% 0.0 mm CLR
13:40 18.8 °C 4.9 °C 1009.4 hPa SSE 16.1 km/h 27.4 km/h 40% 0.0 mm CLR
13:45 18.9 °C 5.0 °C 1009.4 hPa ESE 16.1 km/h 16.7 km/h 40% 0.0 mm CLR
13:50 19.1 °C 5.2 °C 1009.2 hPa SE 14.0 km/h 18.5 km/h 40% 0.0 mm CLR
13:55 19.2 °C 5.6 °C 1009.2 hPa SSE 14.0 km/h 25.9 km/h 41% 0.0 mm CLR
14:00 19.2 °C 5.3 °C 1009.2 hPa SE 19.3 km/h 30.6 km/h 40% 0.0 mm CLR
14:05 19.0 °C 5.1 °C 1009.2 hPa SSE 18.0 km/h 25.9 km/h 40% 0.0 mm CLR
14:10 19.1 °C 5.6 °C 1009.2 hPa SSE 18.3 km/h 33.3 km/h 41% 0.0 mm CLR
14:15 19.1 °C 4.8 °C 1009.2 hPa South 18.3 km/h 22.2 km/h 39% 0.0 mm CLR
14:20 19.0 °C 5.1 °C 1009.1 hPa SSE 19.8 km/h 24.1 km/h 40% 0.0 mm CLR
14:25 19.3 °C 4.6 °C 1009.1 hPa SSE 19.8 km/h 22.2 km/h 38% 0.0 mm CLR
14:30 19.4 °C 5.1 °C 1009.1 hPa SSE 16.4 km/h 24.1 km/h 39% 0.0 mm CLR
14:35 19.4 °C 5.5 °C 1009.0 hPa SSE 16.1 km/h 27.4 km/h 40% 0.0 mm CLR
14:40 19.4 °C 6.2 °C 1009.0 hPa SSE 18.3 km/h 27.8 km/h 42% 0.0 mm CLR
14:45 19.4 °C 5.8 °C 1009.0 hPa SSE 18.3 km/h 33.3 km/h 41% 0.0 mm CLR
14:50 19.4 °C 6.5 °C 1008.9 hPa South 20.9 km/h 29.6 km/h 43% 0.0 mm CLR
14:55 19.4 °C 6.8 °C 1008.9 hPa SSE 20.9 km/h 33.3 km/h 44% 0.0 mm CLR
15:00 19.5 °C 6.9 °C 1008.9 hPa SSE 20.9 km/h 29.0 km/h 44% 0.0 mm CLR
15:05 19.5 °C 6.6 °C 1009.0 hPa SE 20.1 km/h 27.8 km/h 43% 0.0 mm CLR
15:10 19.6 °C 6.7 °C 1009.0 hPa ESE 19.8 km/h 27.8 km/h 43% 0.0 mm CLR
15:15 19.8 °C 7.2 °C 1009.0 hPa South 19.8 km/h 24.1 km/h 44% 0.0 mm CLR
15:20 19.9 °C 6.9 °C 1008.8 hPa SSE 16.1 km/h 30.6 km/h 43% 0.0 mm CLR
15:25 19.8 °C 7.2 °C 1008.8 hPa SE 17.2 km/h 31.5 km/h 44% 0.0 mm CLR
15:30 19.8 °C 6.8 °C 1008.8 hPa SSE 19.0 km/h 32.8 km/h 43% 0.0 mm CLR
15:35 19.7 °C 7.1 °C 1008.7 hPa South 19.0 km/h 35.2 km/h 44% 0.0 mm CLR
15:40 19.8 °C 7.5 °C 1008.7 hPa SE 20.9 km/h 30.6 km/h 45% 0.0 mm CLR
15:45 19.8 °C 8.2 °C 1008.7 hPa SSE 20.1 km/h 29.6 km/h 47% 0.0 mm CLR
15:50 19.7 °C 7.7 °C 1008.6 hPa SE 20.1 km/h 28.2 km/h 46% 0.0 mm CLR
15:55 19.6 °C 8.0 °C 1008.6 hPa SE 20.1 km/h 26.2 km/h 47% 0.0 mm CLR
16:00 19.8 °C 8.5 °C 1008.6 hPa SE 19.3 km/h 27.4 km/h 48% 0.0 mm CLR
16:05 19.9 °C 7.9 °C 1008.5 hPa SSE 18.3 km/h 29.6 km/h 46% 0.0 mm CLR
16:10 19.9 °C 6.9 °C 1008.5 hPa ESE 18.3 km/h 33.3 km/h 43% 0.0 mm CLR
16:15 20.0 °C 7.7 °C 1008.5 hPa SE 18.3 km/h 16.7 km/h 45% 0.0 mm CLR
16:20 20.2 °C 7.6 °C 1008.2 hPa SSE 19.3 km/h 33.8 km/h 44% 0.0 mm CLR
16:25 20.1 °C 7.4 °C 1008.2 hPa SSE 18.3 km/h 31.5 km/h 44% 0.0 mm CLR
16:30 20.0 °C 7.7 °C 1008.2 hPa SSE 20.9 km/h 31.5 km/h 45% 0.0 mm CLR
16:35 20.0 °C 7.7 °C 1008.3 hPa South 20.9 km/h 31.5 km/h 45% 0.0 mm CLR
16:40 20.1 °C 7.4 °C 1008.3 hPa SSE 20.1 km/h 29.6 km/h 44% 0.0 mm CLR
16:45 19.9 °C 7.6 °C 1008.3 hPa SSE 20.1 km/h 33.3 km/h 45% 0.0 mm CLR
16:50 19.8 °C 7.5 °C 1008.2 hPa South 22.5 km/h 38.6 km/h 45% 0.0 mm CLR
16:55 19.9 °C 8.2 °C 1008.2 hPa SE 22.5 km/h 27.8 km/h 47% 0.0 mm CLR
17:00 20.1 °C 8.1 °C 1008.2 hPa SSE 19.3 km/h 29.0 km/h 46% 0.0 mm CLR
17:05 20.1 °C 8.1 °C 1008.0 hPa SSE 19.0 km/h 20.4 km/h 46% 0.0 mm CLR
17:10 20.3 °C 7.9 °C 1008.0 hPa SSE 19.3 km/h 27.4 km/h 45% 0.0 mm CLR
17:15 20.4 °C 8.1 °C 1008.0 hPa South 18.3 km/h 29.6 km/h 45% 0.0 mm CLR
17:20 20.3 °C 8.3 °C 1008.0 hPa South 17.2 km/h 25.9 km/h 46% 0.0 mm CLR
17:25 20.3 °C 7.7 °C 1008.0 hPa SSE 17.2 km/h 25.9 km/h 44% 0.0 mm CLR
17:30 20.3 °C 7.9 °C 1008.0 hPa South 17.2 km/h 29.6 km/h 45% 0.0 mm CLR
17:35 20.3 °C 8.3 °C 1007.9 hPa SSE 17.2 km/h 31.5 km/h 46% 0.0 mm CLR
17:40 20.3 °C 8.7 °C 1007.9 hPa South 19.3 km/h 32.2 km/h 47% 0.0 mm CLR
17:45 20.4 °C 8.4 °C 1007.9 hPa South 18.3 km/h 24.5 km/h 46% 0.0 mm CLR
17:50 20.2 °C 8.2 °C 1008.0 hPa SE 19.8 km/h 25.9 km/h 46% 0.0 mm CLR
17:55 20.3 °C 8.6 °C 1008.0 hPa South 19.8 km/h 25.6 km/h 47% 0.0 mm CLR
18:00 20.2 °C 9.2 °C 1008.0 hPa SSE 19.3 km/h 29.0 km/h 49% 0.0 mm CLR
18:05 20.2 °C 9.2 °C 1007.9 hPa SE 18.0 km/h 24.1 km/h 49% 0.0 mm CLR
18:10 20.2 °C 9.4 °C 1007.9 hPa SSE 20.9 km/h 30.6 km/h 50% 0.0 mm CLR
18:15 20.1 °C 9.1 °C 1007.9 hPa SSW 19.8 km/h 25.9 km/h 49% 0.0 mm CLR
18:20 20.3 °C 9.6 °C 1008.0 hPa SSE 19.0 km/h 22.2 km/h 50% 0.0 mm CLR
18:25 20.2 °C 8.8 °C 1008.0 hPa SSE 19.0 km/h 33.3 km/h 48% 0.0 mm CLR
18:30 20.0 °C 9.6 °C 1008.0 hPa SSE 18.0 km/h 25.9 km/h 51% 0.0 mm CLR
18:35 19.9 °C 9.4 °C 1008.1 hPa SE 19.3 km/h 32.2 km/h 51% 0.0 mm CLR
18:40 19.7 °C 9.3 °C 1008.1 hPa SSE 19.8 km/h 25.9 km/h 51% 0.0 mm CLR
18:45 19.7 °C 9.6 °C 1008.1 hPa SE 19.8 km/h 25.9 km/h 52% 0.0 mm CLR
18:50 19.7 °C 9.8 °C 1008.0 hPa SSE 19.3 km/h 33.8 km/h 53% 0.0 mm CLR
18:55 19.8 °C 9.7 °C 1008.0 hPa SE 18.0 km/h 24.5 km/h 52% 0.0 mm CLR
19:00 19.6 °C 10.1 °C 1008.0 hPa SSE 19.3 km/h 35.4 km/h 54% 0.0 mm CLR
19:05 19.4 °C 10.1 °C 1008.0 hPa South 18.0 km/h 22.2 km/h 55% 0.0 mm CLR
19:10 19.4 °C 10.4 °C 1008.0 hPa SSE 18.0 km/h 24.1 km/h 56% 0.0 mm CLR
19:15 19.4 °C 10.7 °C 1008.0 hPa SE 18.0 km/h 27.8 km/h 57% 0.0 mm CLR
19:20 19.2 °C 10.7 °C 1008.1 hPa South 15.6 km/h 29.6 km/h 58% 0.0 mm CLR
19:25 18.9 °C 10.7 °C 1008.1 hPa SE 15.6 km/h 26.2 km/h 59% 0.0 mm CLR
19:30 18.9 °C 10.7 °C 1008.1 hPa South 18.3 km/h 22.2 km/h 59% 0.0 mm CLR
19:35 18.8 °C 10.6 °C 1008.3 hPa South 19.3 km/h 25.7 km/h 59% 0.0 mm CLR
19:40 18.6 °C 10.2 °C 1008.3 hPa SSE 15.6 km/h 24.1 km/h 58% 0.0 mm CLR
19:45 18.6 °C 10.2 °C 1008.3 hPa SSE 15.6 km/h 22.0 km/h 58% 0.0 mm CLR
19:50 18.4 °C 10.2 °C 1008.4 hPa South 16.4 km/h 22.2 km/h 59% 0.0 mm CLR
19:55 18.4 °C 10.5 °C 1008.4 hPa SSE 16.4 km/h 25.9 km/h 60% 0.0 mm CLR
20:00 18.4 °C 10.4 °C 1008.4 hPa South 14.5 km/h 20.9 km/h 60% 0.0 mm CLR
20:05 18.3 °C 10.4 °C 1008.2 hPa SSE 14.5 km/h 24.1 km/h 60% 0.0 mm CLR
20:10 18.3 °C 10.2 °C 1008.2 hPa South 13.7 km/h 16.7 km/h 59% 0.0 mm CLR
20:15 18.2 °C 10.1 °C 1008.2 hPa South 13.7 km/h 24.1 km/h 59% 0.0 mm CLR
20:20 18.2 °C 10.3 °C 1008.3 hPa SSE 13.7 km/h 13.0 km/h 60% 0.0 mm CLR
20:25 18.2 °C 10.3 °C 1008.3 hPa SSE 13.7 km/h 5.6 km/h 60% 0.0 mm CLR
20:30 18.3 °C 10.4 °C 1008.3 hPa South 4.8 km/h 12.9 km/h 60% 0.0 mm CLR
20:35 18.2 °C 10.3 °C 1008.5 hPa South 5.0 km/h 20.4 km/h 60% 0.0 mm CLR
20:40 17.9 °C 10.0 °C 1008.5 hPa South 10.3 km/h 14.8 km/h 60% 0.0 mm CLR
20:45 17.9 °C 10.0 °C 1008.5 hPa ESE 10.3 km/h 8.7 km/h 60% 0.0 mm CLR
20:50 17.9 °C 10.0 °C 1008.6 hPa ENE 6.4 km/h 7.4 km/h 60% 0.0 mm CLR
20:55 17.8 °C 10.4 °C 1008.6 hPa NE 6.4 km/h 7.4 km/h 62% 0.0 mm CLR
21:00 17.7 °C 10.5 °C 1008.6 hPa NNE 3.2 km/h 8.0 km/h 63% 0.0 mm CLR
21:05 17.5 °C 9.9 °C 1008.9 hPa North 4.7 km/h 7.4 km/h 61% 0.0 mm CLR
21:10 17.4 °C 10.1 °C 1008.9 hPa NE 3.9 km/h 7.4 km/h 62% 0.0 mm CLR
21:15 17.4 °C 10.5 °C 1008.9 hPa NNW 3.9 km/h 5.6 km/h 64% 0.0 mm CLR
21:20 17.3 °C 10.4 °C 1009.2 hPa NNW 3.2 km/h 5.6 km/h 64% 0.0 mm CLR
21:25 17.2 °C 10.1 °C 1009.2 hPa NE 3.2 km/h 3.7 km/h 63% 0.0 mm CLR
21:30 17.2 °C 10.3 °C 1009.2 hPa SSW 2.9 km/h 7.4 km/h 64% 0.0 mm CLR
21:35 17.2 °C 10.3 °C 1009.3 hPa South 3.2 km/h 8.0 km/h 64% 0.0 mm CLR
21:40 17.1 °C 10.7 °C 1009.3 hPa SE 2.9 km/h 7.4 km/h 66% 0.0 mm CLR
21:45 16.9 °C 10.9 °C 1009.3 hPa East 2.9 km/h 7.4 km/h 68% 0.0 mm CLR
21:50 16.7 °C 11.0 °C 1009.4 hPa East 4.7 km/h 7.4 km/h 69% 0.0 mm CLR
21:55 16.5 °C 11.0 °C 1009.4 hPa East 4.7 km/h 7.4 km/h 70% 0.0 mm CLR
22:00 16.3 °C 11.1 °C 1009.4 hPa East 4.8 km/h 14.5 km/h 71% 0.0 mm CLR
22:05 16.1 °C 11.1 °C 1009.6 hPa ESE 4.8 km/h 17.7 km/h 72% 0.0 mm CLR
22:10 16.1 °C 11.1 °C 1009.6 hPa SE 6.9 km/h 7.4 km/h 72% 0.0 mm CLR
22:15 16.1 °C 11.1 °C 1009.6 hPa SE 6.9 km/h   72% 0.0 mm CLR
22:20 16.1 °C 10.8 °C 1010.0 hPa SE 2.9 km/h 3.7 km/h 71% 0.0 mm CLR
22:25 16.1 °C 11.1 °C 1010.0 hPa West 2.9 km/h 3.9 km/h 72% 0.0 mm CLR
22:30 16.1 °C 11.1 °C 1010.0 hPa West 3.2 km/h   72% 0.0 mm CLR
22:35 15.9 °C 11.1 °C 1010.0 hPa West 3.2 km/h   73% 0.0 mm CLR
22:40 15.9 °C 11.1 °C 1010.0 hPa Calm     73% 0.0 mm CLR
22:45 15.9 °C 11.1 °C 1010.0 hPa Calm     73% 0.0 mm CLR
22:50 15.9 °C 11.3 °C 1010.5 hPa Calm     74% 0.0 mm CLR
22:55 15.8 °C 11.2 °C 1010.5 hPa Calm   7.4 km/h 74% 0.0 mm CLR
23:00 15.8 °C 11.2 °C 1010.5 hPa NW 3.2 km/h 6.4 km/h 74% 0.0 mm CLR
23:05 15.7 °C 11.1 °C 1010.5 hPa North 3.2 km/h 8.0 km/h 74% 0.0 mm CLR
23:10 15.6 °C 11.2 °C 1010.5 hPa ESE 4.7 km/h 7.6 km/h 75% 0.0 mm CLR
23:15 15.6 °C 11.0 °C 1010.5 hPa South 4.7 km/h 9.5 km/h 74% 0.0 mm CLR
23:20 15.7 °C 10.9 °C 1010.3 hPa SSW 5.8 km/h 9.3 km/h 73% 0.0 mm CLR
23:25 15.8 °C 10.9 °C 1010.3 hPa WSW 5.8 km/h 7.4 km/h 73% 0.0 mm CLR
23:30 15.8 °C 10.8 °C 1010.3 hPa South 5.8 km/h 9.3 km/h 72% 0.0 mm CLR
23:35 15.9 °C 10.8 °C 1010.2 hPa South 5.8 km/h 9.3 km/h 72% 0.0 mm CLR
23:40 16.0 °C 10.9 °C 1010.2 hPa ESE 5.8 km/h 7.4 km/h 72% 0.0 mm CLR
23:45 15.8 °C 10.7 °C 1010.2 hPa SE 4.8 km/h 14.5 km/h 72% 0.0 mm CLR
23:50 15.4 °C 10.6 °C 1010.0 hPa ESE 8.0 km/h 12.9 km/h 73% 0.0 mm CLR
23:55 15.2 °C 10.6 °C 1010.0 hPa ESE 7.6 km/h 9.3 km/h 74% 0.0 mm CLR
Murcia-Puente Tocinos, España
Compliments of Weather Underground - 2.75 mb

La estación de MeteoMurcia.com, publica sus datos en los siguientes proyectos:

Weather Underground PWS IMURCIAP2 Meteoclimatic www.awekas.at

W3Counter
Web Analytics